HST
1 20580U 90037B 24317.98492442 .00010272 00000-0 44059-3 0 9990
2 20580 28.4684 66.0299 0001978 206.7173 153.3319 15.21055316699943
ISS (ZARYA)
1 25544U 98067A 24318.20749274 .00020386 00000-0 34595-3 0 9991
2 25544 51.6381 297.0989 0008389 169.2577 190.8593 15.51430187481660
CXO
1 25867U 99040B 24318.59143727 .00000691 00000-0 00000-0 0 9992
2 25867 44.5231 142.0444 8730833 303.9002 0.2087 0.37812291 15126